weather.gov     
National Weather Service

Regional Weather Roundup
NWS Homepage
This page is being discontinued on March 12, 2014.
The same data is available at this site. Please update your bookmarks.
Thank you, and we apologize for the inconvenience.
Please send an email to SR-SRH.Webmaster@noaa.gov with any concerns.


Current Version
Previous Version:    01  02  03  04  05  06  07  08  09  10  11  12  13  14  15  16  17  18  19  20  21  22  23  24  25  26  27  28  29  30  
   31  32  33  34  35  36  37  38  39  40  41  42  43  44  45  46  47  48  49  50  51  52  53  
[Printable]
159
ASUS43 KOAX 282010
RWRNE

WEATHER ROUNDUP FOR NEBRASKA
NATIONAL WEATHER SERVICE OMAHA NE
200 PM CST FRI NOV 28 2014

NOTES: SATELLITE DATA IS BEING USED TO AUGMENT CLOUD COVER ABOVE
       12000 FEET.
       "FAIR" INDICATES FEW OR NO CLOUDS BELOW 12,000 FEET WITH NO
       SIGNIFICANT WEATHER AND/OR OBSTRUCTIONS TO VISIBILITY.

  * THESE STATIONS DO NOT REPORT WEATHER SUCH AS RAIN...SNOW OR FOG.

NEZ001>004-019>022-054>056-282100-
NEBRASKA PANHANDLE

CITY           SKY/WX    TMP DP  RH WIND       PRES   REMARKS
SCOTTSBLUFF    CLOUDY    63  28  26 NW8       29.73F
ALLIANCE       MOSUNNY   66  19  16 W24G30    29.72F
CHADRON        SUNNY    N/A N/A N/A W23       29.67F
KIMBALL        CLOUDY    63  16  16 W22G32    29.78F
SIDNEY         CLOUDY    66  19  16 W17G25    29.80F
$$

NEZ057>060-069>072-079>082-282100-
SOUTHWEST NEBRASKA

CITY           SKY/WX    TMP DP  RH WIND       PRES   REMARKS
NORTH PLATTE   SUNNY     72  21  14 W20G28    29.70F
IMPERIAL       MOSUNNY   74  15  10 W15       29.77F
LEXINGTON      PTSUNNY   76  21  12 NW15      29.69F
MCCOOK         MOSUNNY   73  22  14 W7        29.74F
OGALLALA       MOSUNNY   66  32  28 W14       29.74F
$$

NEZ005>010-023>029-035>040-094-282100-
NORTH CENTRAL NEBRASKA

CITY           SKY/WX    TMP DP  RH WIND       PRES   REMARKS
VALENTINE      SUNNY     66  27  23 W18G24    29.64F
AINSWORTH      SUNNY     63  28  26 W15       29.64F
BROKEN BOW     MOSUNNY   73  25  16 W21G28    29.67F
O`NEILL        SUNNY     67  29  24 W14       29.62S
ORD            SUNNY     72  22  15 W16G25    29.63F
THEDFORD       MOSUNNY   69  25  19 NW18G28   29.68F
$$

NEZ041-046>049-061>064-073>077-083>087-282100-
SOUTH CENTRAL NEBRASKA

CITY           SKY/WX    TMP DP  RH WIND       PRES   REMARKS
GRAND ISLAND   MOSUNNY   68  27  21 W15       29.68F
AURORA         SUNNY     69  29  22 SW13      29.68F
HASTINGS       SUNNY     72  24  16 SW14G22   29.69F
HEBRON         SUNNY     64  25  22 SW14G21   29.73F
HOLDREGE       MOSUNNY   73  24  16 SW12G20   29.71F
KEARNEY *      SUNNY     68  27  21 SW14G21   29.72F
YORK           MOSUNNY   64  -8   5 SW17      29.69F
$$

NEZ011>018-030>034-042>045-282100-
NORTHEAST NEBRASKA

CITY           SKY/WX    TMP DP  RH WIND       PRES   REMARKS
NORFOLK          N/A     57  30  35 S9        29.63F
ALBION         MOSUNNY   67  27  22 SW13      29.63F
BLAIR          SUNNY     51  30  44 S12       29.69F
COLUMBUS *     MOSUNNY   59  30  33 S10       29.67F
FREMONT        SUNNY     53  30  41 SE12      29.69F
TEKAMAH        SUNNY     52  30  43 S13       29.69F
WAYNE          SUNNY     51  31  46 S10       29.66F
$$

NEZ050>053-065>068-078-088>093-282100-
SOUTHEAST NEBRASKA

CITY           SKY/WX    TMP DP  RH WIND       PRES   REMARKS
LINCOLN        MOSUNNY   56  30  37 S12       29.71F
OMAHA EPPLEY   MOSUNNY   48  30  49 S15       29.73F
BEATRICE       MOSUNNY   58  32  38 S12       29.73F
FALLS CITY     PTSUNNY   57  31  37 S10       29.77F
NEBRASKA CITY  MOSUNNY   55  25  31 SW15      29.74F
PLATTSMOUTH    SUNNY     52  28  40 SE10      29.73F
$$

NEZ044-045-051>053-067-282100-
OMAHA AREA

CITY           SKY/WX    TMP DP  RH WIND       PRES   REMARKS
OMAHA EPPLEY   MOSUNNY   48  30  49 S15       29.73F
BLAIR          SUNNY     51  30  44 S12       29.69F
FREMONT        SUNNY     53  30  41 SE12      29.69F
MILLARD        SUNNY     53  32  45 S10       29.71F
OFFUTT AFB     SUNNY     51  31  44 S9        29.72F
PLATTSMOUTH    SUNNY     52  28  40 SE10      29.73F
WAHOO          FAIR      54  28  36 S14       29.69F
$$




U.S. Dept. of Commerce
NOAA National Weather Service
1325 East West Highway
Silver Spring, MD 20910
E-mail: w-nws.webmaster@noaa.gov
Page last modified: May 16, 2007
NATIONAL WEATHER SERVICE: for Safety, for Work, for Fun - FOR LIFE